Regional Weather Roundup
Issued by NWS

Home | Current Version | Previous Version | Graphics & Text | Print | Product List | Glossary Off
Versions: 1 2 3 4 5 6 7 8 9 10 11 12 13 14 15 16 17 18 19 20 21 22 23 24 25 26 27 28 29 30 31 32 33 34 35 36 37 38 39 40 41 42 43 44 45 46 47 48 49 50

000
ASUS43 KMKX 050611
RWRWI

WISCONSIN REGIONAL WEATHER ROUNDUP
NATIONAL WEATHER SERVICE MILWAUKEE/SULLIVAN WI
100 AM CDT SAT SEP 05 2015

NOTE: "FAIR" INDICATES FEW OR NO CLOUDS BELOW 12,000 FEET WITH NO
SIGNIFICANT WEATHER AND/OR OBSTRUCTIONS TO VISIBILITY.

WIZ001-002-006>008-014>016-023>028-050700-
NORTHWEST WISCONSIN

CITY           SKY/WX    TMP DP  RH WIND       PRES   REMARKS
SUPERIOR ARPT  MOCLDY    59  57  94 CALM      29.98S
6HR MIN TEMP:  59; 6HR MAX TEMP:  60;

ASHLAND        PTCLDY    63  63 100 CALM      30.01R
6HR MIN TEMP:  62; 6HR MAX TEMP:  68;

HAYWARD        MOCLDY    72  66  81 VRB6      30.02R
6HR MIN TEMP:  72; 6HR MAX TEMP:  79;

SIREN          PTCLDY    74  70  88 S6        29.98R
6HR MIN TEMP:  74; 6HR MAX TEMP:  82;

CUMBERLAND     PTCLDY    68  66  94 SE6       30.01R
RICE LAKE      PTCLDY    71  66  85 SE8       30.03R
6HR MIN TEMP:  71; 6HR MAX TEMP:  79;

CHETEK         MOCLDY    70  68  92 SE6       30.01S
6HR MIN TEMP:  70; 6HR MAX TEMP:  79;

LADYSMITH      MOCLDY    70  66  89 SE5       30.05S
6HR MIN TEMP:  69; 6HR MAX TEMP:  79;

EAU CLAIRE     PTCLDY    72  67  84 E6        29.99S
6HR MIN TEMP:  72; 6HR MAX TEMP:  81;

MENOMONIE      PTCLDY    73  71  92 SE5       30.00R
6HR MIN TEMP:  73; 6HR MAX TEMP:  82;

NEW RICHMOND   MOCLDY    73  71  96 E5        29.98S
6HR MIN TEMP:  73; 6HR MAX TEMP:  81;

OSCEOLA        PTCLDY    74  74 100 E6        29.99S
6HR MIN TEMP:  74; 6HR MAX TEMP:  82;

$$

WIZ003>005-009-010-017-018-050700-
NORTH CENTRAL WISCONSIN

CITY           SKY/WX    TMP DP  RH WIND       PRES   REMARKS
MANITOWISH WTR PTCLDY    67  67 100 SE6       30.08R
6HR MIN TEMP:  67; 6HR MAX TEMP:  76;

ARBOR VITAE    PTCLDY    68  65  93 SE5       30.09R
6HR MIN TEMP:  67; 6HR MAX TEMP:  77;

WOODRUFF       PTCLDY    68  65  93 SE5       30.09R
6HR MIN TEMP:  67; 6HR MAX TEMP:  77;

RHINELANDER    MOCLDY    65  63  93 CALM      30.10R
6HR MIN TEMP:  65; 6HR MAX TEMP:  76;

EAGLE RIVER    MOCLDY    64  64 100 SE3       30.09R FOG
6HR MIN TEMP:  63; 6HR MAX TEMP:  76;

LAND O LAKES   MOCLDY    64  64  99 CALM      30.10S FOG
6HR MIN TEMP:  63; 6HR MAX TEMP:  76; 6HR PCP:  0.02;

PHILLIPS       PTCLDY    68  66  94 SE6       30.05S
6HR MIN TEMP:  68; 6HR MAX TEMP:  78;

TOMAHAWK       CLEAR     64  62  95 CALM      30.08S FOG
6HR MIN TEMP:  64; 6HR MAX TEMP:  75;

MEDFORD        PTCLDY    66  66  98 SE5       30.07S FOG
6HR MIN TEMP:  66; 6HR MAX TEMP:  74;

MERRILL        PTCLDY    65  65 100 CALM      30.08S
6HR MIN TEMP:  65; 6HR MAX TEMP:  77;

$$

WIZ029-030-035-036-043>047-050700-
CENTRAL WISCONSIN

CITY           SKY/WX    TMP DP  RH WIND       PRES   REMARKS
WAUSAU         PTCLDY    67  65  93 SE7       30.06R FOG
6HR MIN TEMP:  66; 6HR MAX TEMP:  77;

MOSINEE        PTCLDY    64  64 100 E5        30.08R FOG
MARSHFIELD     MOCLDY    68  63  84 E5        30.06S HAZE
6HR MIN TEMP:  68; 6HR MAX TEMP:  77;

STEVENS POINT  PTCLDY    64  64  99 E3        30.07R FOG
6HR MIN TEMP:  64; 6HR MAX TEMP:  73;

WAUPACA        PTCLDY    67  67  99 CALM      30.07R FOG
6HR MIN TEMP:  67; 6HR MAX TEMP:  75;

WAUTOMA        PTCLDY    64  64 100 CALM      30.07R
6HR MIN TEMP:  64; 6HR MAX TEMP:  74;

WISC RAPIDS    MOCLDY    69  64  84 SE5       30.07R
6HR MIN TEMP:  68; 6HR MAX TEMP:  76;

CAMP DOUGLAS   CLEAR     65  65 100 E3        30.03F
6HR MIN TEMP:  65; 6HR MAX TEMP:  78; 6HR PCP: TRACE;

$$

WIZ011>013-019>022-031-037>040-048>050-050700-
NORTHEAST WISCONSIN

CITY           SKY/WX    TMP DP  RH WIND       PRES   REMARKS
ANTIGO         CLOUDY    64  64 100 SE5       30.10R FOG
SHAWANO        NOT AVBL
OCONTO           N/A     60  60 100 CALM      30.06F
6HR MIN TEMP:  60; 6HR MAX TEMP:  70; 6HR PCP:  0.03;

STURGEON BAY   MOCLDY    66  63  88 W5        30.09R VSB 1
6HR MIN TEMP:  66; 6HR MAX TEMP:  70;

GREEN BAY      FOG       62  61  96 CALM      30.07R VSB 3/4
6HR MIN TEMP:  62; 6HR MAX TEMP:  73;

MANITOWOC      FOG       65  64  97 MISG      30.07R VSB 1/4
6HR MIN TEMP:  64; 6HR MAX TEMP:  66;

APPLETON       PTCLDY    64  64 100 CALM      30.05S
CLINTONVILLE   FOG       63  63 100 CALM      30.06S VSB 1/2
OSHKOSH        PTCLDY    64  62  93 CALM      30.06R
6HR MIN TEMP:  64; 6HR MAX TEMP:  72;

$$

WIZ032>034-041-042-053>061-050700-
SOUTHWEST WISCONSIN

CITY           SKY/WX    TMP DP  RH WIND       PRES   REMARKS
LA CROSSE      MOCLDY    77  72  84 E7        29.99R
6HR MIN TEMP:  77; 6HR MAX TEMP:  85;

SPARTA         PTCLDY    71  67  89 CALM      30.03S
6HR MIN TEMP:  70; 6HR MAX TEMP:  81;

VIROQUA        MOCLDY    72  72 100 SE8       30.03S
6HR MIN TEMP:  72; 6HR MAX TEMP:  82;

BOSCOBEL       PTCLDY    73  72  96 CALM      30.01F FOG
6HR MIN TEMP:  72; 6HR MAX TEMP:  81;

PRAIRIE DU CHI LGT RAIN  73  71  91 CALM      30.01R
6HR MIN TEMP:  73; 6HR MAX TEMP:  85;

PLATTEVILLE    MOCLDY    74  72  92 E7        30.04S
6HR MIN TEMP:  74; 6HR MAX TEMP:  83;

$$

WIZ056-057-062-063-064-067-068-050700-
SOUTH CENTRAL WISCONSIN

CITY           SKY/WX    TMP DP  RH WIND       PRES   REMARKS
REEDSBURG      PTCLDY    69  68  96 E3        30.04S
6HR MIN TEMP:  69; 6HR MAX TEMP:  80;

BARABOO/DELLS  PTCLDY    69  66  90 CALM      30.05S
6HR MIN TEMP:  69; 6HR MAX TEMP:  79;

LONE ROCK      MOCLDY    72  70  93 E7        30.04R
6HR MIN TEMP:  72; 6HR MAX TEMP:  82;

MINERAL POINT  CLEAR     73  72  94 SE8       30.05S FOG
MADISON        CLEAR     68  65  90 SE5       30.05S
6HR MIN TEMP:  68; 6HR MAX TEMP:  79;

MIDDLETON      PTCLDY    70  67  92 SE5       30.06S
6HR MIN TEMP:  70; 6HR MAX TEMP:  80;

WATERTOWN      CLEAR     65  65 100 CALM      30.05F
6HR MIN TEMP:  65; 6HR MAX TEMP:  76;

MONROE         PTCLDY    68  66  94 E5        30.06R FOG
JANESVILLE     CLEAR     68  64  88 CALM      30.05S
$$

WIZ051-052-058>065-066-070>072-050700-
SOUTHEAST WISCONSIN

CITY           SKY/WX    TMP DP  RH WIND       PRES   REMARKS
MILWAUKEE      FOG       66  65  96 CALM      30.06S VSB 1/2
6HR MIN TEMP:  65; 6HR MAX TEMP:  68;

WAUKESHA       CLOUDY    63  63 100 SE3       30.08S FOG
MILWAUKEE/TIMM CLOUDY    64  61  88 CALM      30.07S FOG
RACINE         MOCLDY    68  64  87 SE3       30.08S
6HR MIN TEMP:  67; 6HR MAX TEMP:  69;

BURLINGTON     CLOUDY    65  64  97 CALM      30.07S FOG
6HR MIN TEMP:  65; 6HR MAX TEMP:  71;

KENOSHA        PTCLDY    68  65  90 S5        30.07S
6HR MIN TEMP:  66; 6HR MAX TEMP:  69;

FOND DU LAC    PTCLDY    65  64  97 SE5       30.07R
6HR MIN TEMP:  65; 6HR MAX TEMP:  73;

SHEBOYGAN      FOG       64  64 100 SW3       30.07S VSB 1/4
6HR MIN TEMP:  62; 6HR MAX TEMP:  69;

WEST BEND      FOG       63  63 100 CALM      30.07S VSB 1/2
JUNEAU         MOCLDY    66  64  94 SE5       30.08R FOG
6HR MIN TEMP:  65; 6HR MAX TEMP:  74;

$$

LSZ147-162-050700-
LAKE SUPERIOR

STATION/POSITION TIME  TEMP    WIND        PRES    WAVE
                       AIR SEA DIR/SP/G            HT/PER
                 (UTC) (F)     (DEG/KT/KT) (MB)    (FT/S)
W MID LAKE BUOY  0550   63 57  140/  8/ 10 1016.1R   1/ 4
DEVILS ISLAND    0600   66      10/  2/  3 1015.6R
PORT WING        0500   53      10/  4/  5 1015.2S
SAXON HARBOR     0500   74     180/  2/  6 1015.2R
$$

LMZ867-665-643>646-050700-
LAKE MICHIGAN

STATION/POSITION TIME  TEMP    WIND        PRES    WAVE
                       AIR SEA DIR/SP/G            HT/PER



USA.gov is the U.S. government's official web portal to all federal, state and local government web resources and services.